TimeAEST,TemperatureF,Dew PointF,Humidity,Sea Level PressureIn,VisibilityMPH,Wind Direction,Wind SpeedMPH,Gust SpeedMPH,PrecipitationIn,Events,Conditions,WindDirDegrees,DateUTC
12:00 AM,74,60,53,30.06,,South,8.1,,,,,180,2012-10-16 14:00:00
12:00 AM,73.4,60.8,65,30.06,6.2,South,8.1,-,N/A,,Partly Cloudy,180,2012-10-16 14:00:00
12:30 AM,73.4,60.8,65,30.04,6.2,South,9.2,-,N/A,,Partly Cloudy,180,2012-10-16 14:30:00
1:00 AM,72,61,59,30.06,,South,8.1,,,,,170,2012-10-16 15:00:00
1:00 AM,71.6,60.8,69,30.04,6.2,South,8.1,-,N/A,,Partly Cloudy,170,2012-10-16 15:00:00
1:30 AM,71.6,60.8,69,30.04,6.2,South,9.2,-,N/A,,Partly Cloudy,170,2012-10-16 15:30:00
2:00 AM,71.6,60.8,69,30.01,6.2,South,8.1,-,N/A,,Partly Cloudy,180,2012-10-16 16:00:00
2:30 AM,71.6,60.8,69,30.01,6.2,SSE,10.4,-,N/A,,Scattered Clouds,160,2012-10-16 16:30:00
3:00 AM,69.8,62.6,78,30.01,6.2,South,10.4,-,N/A,Rain,Light Rain Showers,170,2012-10-16 17:00:00
3:30 AM,71.6,62.6,73,30.01,6.2,South,10.4,-,N/A,,Scattered Clouds,180,2012-10-16 17:30:00
4:00 AM,72,63,66,30.02,,South,8.1,,,,,170,2012-10-16 18:00:00
4:00 AM,71.6,62.6,73,30.01,6.2,South,8.1,-,N/A,,Scattered Clouds,170,2012-10-16 18:00:00
4:30 AM,71.6,62.6,73,30.01,6.2,South,8.1,-,N/A,,Partly Cloudy,170,2012-10-16 18:30:00
5:00 AM,71.6,64.4,78,30.01,6.2,SSE,9.2,-,N/A,Rain,Light Rain Showers,150,2012-10-16 19:00:00
5:30 AM,71.6,64.4,78,30.01,6.2,South,4.6,-,N/A,,Mostly Cloudy,180,2012-10-16 19:30:00
6:00 AM,73,62,60,30.04,16,South,8.1,,,,Partly Cloudy,180,2012-10-16 20:00:00
6:00 AM,73.4,62.6,69,30.04,6.2,South,8.1,-,N/A,,Mostly Cloudy,180,2012-10-16 20:00:00
6:30 AM,73.4,60.8,65,30.04,6.2,South,6.9,-,N/A,,Scattered Clouds,190,2012-10-16 20:30:00
7:00 AM,73.4,62.6,69,30.04,6.2,South,8.1,-,N/A,,Scattered Clouds,180,2012-10-16 21:00:00
7:30 AM,75.2,62.6,65,30.06,6.2,South,6.9,-,N/A,,Scattered Clouds,170,2012-10-16 21:30:00
8:00 AM,77.0,62.6,61,30.06,6.2,SSE,8.1,-,N/A,,Partly Cloudy,160,2012-10-16 22:00:00
8:30 AM,78.8,59.0,51,30.06,6.2,SE,10.4,-,N/A,,Partly Cloudy,140,2012-10-16 22:30:00
9:00 AM,78,59,41,30.08,19,SE,10.4,,,,Partly Cloudy,140,2012-10-16 23:00:00
9:00 AM,77.0,59.0,54,30.06,6.2,SE,10.4,-,N/A,,Scattered Clouds,140,2012-10-16 23:00:00
9:30 AM,80.6,57.2,45,30.06,6.2,SE,17.3,-,N/A,,Scattered Clouds,130,2012-10-16 23:30:00
10:00 AM,80,56,34,30.07,,ESE,15.0,,,,,110,2012-10-17 00:00:00
10:00 AM,78.8,57.2,47,30.06,6.2,ESE,15.0,-,N/A,,Partly Cloudy,110,2012-10-17 00:00:00
10:30 AM,82.4,55.4,39,30.04,6.2,ESE,17.3,-,N/A,,Partly Cloudy,120,2012-10-17 00:30:00
11:00 AM,82.4,55.4,39,30.04,6.2,ESE,18.4,-,N/A,,Partly Cloudy,120,2012-10-17 01:00:00
11:30 AM,84.2,55.4,37,30.01,6.2,ESE,17.3,-,N/A,,Partly Cloudy,110,2012-10-17 01:30:00
12:00 PM,85,56,26,30.01,19,ESE,17.3,,,,Partly Cloudy,120,2012-10-17 02:00:00
12:00 PM,84.2,55.4,37,30.01,6.2,ESE,17.3,-,N/A,,Partly Cloudy,120,2012-10-17 02:00:00
12:30 PM,84.2,55.4,37,29.98,6.2,ESE,17.3,-,N/A,,Partly Cloudy,120,2012-10-17 02:30:00
1:00 PM,85,50,19,30.00,,ESE,17.3,,,,,120,2012-10-17 03:00:00
1:00 PM,84.2,50.0,30,29.98,6.2,ESE,17.3,-,N/A,,Partly Cloudy,120,2012-10-17 03:00:00
1:30 PM,82.4,51.8,35,29.98,6.2,SE,18.4,-,N/A,,Partly Cloudy,130,2012-10-17 03:30:00
2:00 PM,84.2,55.4,37,29.95,6.2,SE,16.1,-,N/A,,Partly Cloudy,130,2012-10-17 04:00:00
2:30 PM,82.4,57.2,42,29.95,6.2,ESE,18.4,-,N/A,,Partly Cloudy,120,2012-10-17 04:30:00
3:00 PM,82,59,35,29.95,19,ESE,16.1,,,,Partly Cloudy,110,2012-10-17 05:00:00
3:00 PM,82.4,59.0,45,29.95,6.2,ESE,16.1,-,N/A,,Partly Cloudy,110,2012-10-17 05:00:00
3:30 PM,82.4,60.8,48,29.95,6.2,ESE,16.1,-,N/A,,Partly Cloudy,110,2012-10-17 05:30:00
4:00 PM,82,59,35,29.96,,ESE,16.1,,,,,120,2012-10-17 06:00:00
4:00 PM,82.4,59.0,45,29.95,6.2,ESE,16.1,-,N/A,,Scattered Clouds,120,2012-10-17 06:00:00
4:30 PM,80.6,57.2,45,29.95,6.2,SE,17.3,-,N/A,,Partly Cloudy,140,2012-10-17 06:30:00
5:00 PM,80.6,57.2,45,29.95,6.2,SE,17.3,-,N/A,,Partly Cloudy,140,2012-10-17 07:00:00
5:30 PM,78.8,60.8,54,29.95,6.2,SE,15.0,-,N/A,,Partly Cloudy,140,2012-10-17 07:30:00
6:00 PM,76,61,49,29.98,,SSE,10.4,,,,,160,2012-10-17 08:00:00
6:00 PM,77.0,60.8,57,29.98,6.2,SSE,10.4,-,N/A,,Partly Cloudy,160,2012-10-17 08:00:00
6:30 PM,75.2,62.6,65,29.98,6.2,SSE,10.4,-,N/A,,Partly Cloudy,150,2012-10-17 08:30:00
7:00 PM,75.2,64.4,69,29.98,6.2,SSE,11.5,-,N/A,,Partly Cloudy,150,2012-10-17 09:00:00
7:30 PM,75.2,62.6,65,30.01,6.2,SSE,13.8,-,N/A,,Partly Cloudy,150,2012-10-17 09:30:00
8:00 PM,75.2,62.6,65,30.01,6.2,SSE,15.0,-,N/A,,Scattered Clouds,150,2012-10-17 10:00:00
8:30 PM,75.2,60.8,61,30.01,6.2,SSE,12.7,-,N/A,,Mostly Cloudy,150,2012-10-17 10:30:00
9:00 PM,73,62,61,30.02,,South,4.6,,,,,190,2012-10-17 11:00:00
9:00 PM,73.4,62.6,69,30.01,6.2,South,4.6,-,N/A,,Scattered Clouds,190,2012-10-17 11:00:00
9:30 PM,73.4,62.6,69,30.01,6.2,South,5.8,-,N/A,,Partly Cloudy,170,2012-10-17 11:30:00
10:00 PM,73,62,61,30.03,,South,5.8,,,,,170,2012-10-17 12:00:00
10:00 PM,73.4,62.6,69,30.01,6.2,South,5.8,-,N/A,,Partly Cloudy,170,2012-10-17 12:00:00
10:30 PM,73.4,64.4,73,30.01,6.2,South,8.1,-,N/A,,Scattered Clouds,180,2012-10-17 12:30:00
11:00 PM,73.4,62.6,69,30.01,6.2,South,8.1,-,N/A,,Partly Cloudy,180,2012-10-17 13:00:00
11:30 PM,73.4,62.6,69,30.01,6.2,South,9.2,-,N/A,,Partly Cloudy,190,2012-10-17 13:30:00